Location: ????????
(55.3155°N, 39.2900°E)
Time: 18:31:50
(UTC+00:00)

ACS3 Solar Sail - Pass Details

Date: 14 November 2025
Orbit: 889 x 1003 km, 97.3° (Epoch: 06 December)

Event Time Altitude Azimuth Distance (km) Brightness Sun altitude
Rises 00:04:59 0° 17° (NNE) 3,548 5.3 -40.0°
Reaches altitude 10° 00:07:34 10° 25° (NNE) 2,617 4.5 -39.7°
Enters shadow 00:11:17 32° 57° (ENE) 1,540 3.2 -39.2°
